Sigfox identifier Datetime Temperature Humidity SNR
003A60A7 2019-04-23 14:42:42 15.8 32 24.1
003A60A7 2019-04-23 14:08:01 15.8 32 24
003A60A7 2019-04-23 13:33:20 15.7 32 24
003A60A7 2019-04-23 12:58:40 15.6 32 24
003A60A7 2019-04-23 12:23:58 15.6 32 24
003A60A7 2019-04-23 11:49:17 15.6 32 24.1
003A60A7 2019-04-23 11:14:36 15.5 32 24.2
003A60A7 2019-04-23 10:39:56 15.4 32 24.2
003A60A7 2019-04-23 10:05:16 15.4 32 24
003A60A7 2019-04-23 09:30:36 15.5 32 24.1
003A60A7 2019-04-23 08:55:55 15.4 32 23.9
003A60A7 2019-04-23 08:21:15 15.4 32 23.7
003A60A7 2019-04-23 07:46:35 15.4 32 23.7
003A60A7 2019-04-23 07:11:54 15.4 32 23.7
003A60A7 2019-04-23 06:37:14 15.4 32 23.7
003A60A7 2019-04-23 06:02:33 15.4 32 23.8
003A60A7 2019-04-23 05:27:52 15.3 32 23.7
003A60A7 2019-04-23 04:53:11 15.4 32 23.6
003A60A7 2019-04-23 04:18:31 15.4 32 23.6
003A60A7 2019-04-23 03:43:49 15.4 32 23.6
003A60A7 2019-04-23 03:09:08 15.5 32 23.4
003A60A7 2019-04-23 02:34:27 15.4 32 23.4
003A60A7 2019-04-23 01:59:46 15.5 32 23.4
003A60A7 2019-04-23 01:25:05 15.5 32 23.2
003A60A7 2019-04-23 00:50:25 15.6 32 23.2
003A60A7 2019-04-23 00:15:45 15.6 32 23.2
003A60A7 2019-04-22 23:41:04 15.6 32 23.2
003A60A7 2019-04-22 23:06:22 15.6 32 23.1
003A60A7 2019-04-22 22:31:42 15.6 32 23.1
003A60A7 2019-04-22 21:57:01 15.6 32 23
003A60A7 2019-04-22 21:22:21 15.6 32 22.9
003A60A7 2019-04-22 20:47:40 15.6 32 22.7
003A60A7 2019-04-22 20:13:00 15.6 32 22.7
003A60A7 2019-04-22 19:38:20 15.7 32 22.8
003A60A7 2019-04-22 19:03:40 15.6 32 22.9
003A60A7 2019-04-22 18:29:00 15.7 31 22.9
003A60A7 2019-04-22 17:54:19 15.7 31 22.9
003A60A7 2019-04-22 17:19:39 15.6 31 23
003A60A7 2019-04-22 16:45:00 15.6 31 23
003A60A7 2019-04-22 16:10:19 15.6 31 23
003A60A7 2019-04-22 15:35:38 15.6 31 23.1
003A60A7 2019-04-22 15:00:56 15.6 31 23
003A60A7 2019-04-22 14:26:15 15.5 31 23
003A60A7 2019-04-22 13:51:35 15.6 31 23
003A60A7 2019-04-22 13:16:54 15.5 31 23.1
003A60A7 2019-04-22 12:42:13 15.5 31 23
003A60A7 2019-04-22 12:07:33 15.4 31 23.1
003A60A7 2019-04-22 11:32:52 15.4 31 23.1
003A60A7 2019-04-22 10:58:12 15.4 31 23.1
003A60A7 2019-04-22 10:23:32 15.3 31 23.2
003A60A7 2019-04-22 09:48:52 15.3 31 23.2
003A60A7 2019-04-22 09:14:11 15.3 31 23.1
003A60A7 2019-04-22 08:39:35 15.4 31 23.2
003A60A7 2019-04-22 08:04:50 15.4 31 23.3
003A60A7 2019-04-22 07:30:09 15.3 31 23.3
003A60A7 2019-04-22 06:55:29 15.4 31 23.4
003A60A7 2019-04-22 06:20:49 15.3 31 23.4
003A60A7 2019-04-22 05:46:09 15.4 31 23.3
003A60A7 2019-04-22 05:11:28 15.3 31 23.3
003A60A7 2019-04-22 04:36:49 15.4 31 23.3
003A60A7 2019-04-22 04:02:08 15.4 31 23.3
003A60A7 2019-04-22 03:27:28 15.3 31 23.2
003A60A7 2019-04-22 02:52:47 15.3 31 23.1
003A60A7 2019-04-22 02:18:06 15.3 31 23
003A60A7 2019-04-22 01:43:24 15.4 31 22.9
003A60A7 2019-04-22 01:08:43 15.3 31 22.8
003A60A7 2019-04-22 00:34:03 15.4 31 22.8
003A60A7 2019-04-21 23:59:23 15.3 31 22.7
003A60A7 2019-04-21 23:24:42 15.3 31 22.7
003A60A7 2019-04-21 22:50:01 15.3 31 22.8
003A60A7 2019-04-21 22:15:20 15.4 31 22.7
003A60A7 2019-04-21 21:40:39 15.3 31 22.6
003A60A7 2019-04-21 21:05:59 15.3 31 22.4
003A60A7 2019-04-21 20:31:17 15.4 31 22.3
003A60A7 2019-04-21 19:56:35 15.4 31 22.3
003A60A7 2019-04-21 19:21:54 15.3 31 22.3
003A60A7 2019-04-21 18:47:13 15.3 31 22.2
003A60A7 2019-04-21 18:12:31 15.4 31 22.3
003A60A7 2019-04-21 17:37:50 15.3 31 22.3
003A60A7 2019-04-21 17:03:10 15.3 31 22.1
003A60A7 2019-04-21 16:28:30 15.3 31 22.2
003A60A7 2019-04-21 15:53:49 15.3 31 22.2
003A60A7 2019-04-21 15:19:08 15.3 31 22.1
003A60A7 2019-04-21 14:44:26 15.3 31 22
003A60A7 2019-04-21 14:09:46 15.3 31 22
003A60A7 2019-04-21 13:35:04 15.3 31 21.9
003A60A7 2019-04-21 13:00:24 15.3 31 21.9
003A60A7 2019-04-21 12:25:43 15.3 31 21.9
003A60A7 2019-04-21 11:51:02 15.3 31 22
003A60A7 2019-04-21 11:16:23 15.3 31 22.2
003A60A7 2019-04-21 10:41:40 15.3 31 22.2
003A60A7 2019-04-21 10:07:00 15.3 31 22.3
003A60A7 2019-04-21 09:32:19 15.3 31 22.3
003A60A7 2019-04-21 08:57:39 15.3 30 22.2
003A60A7 2019-04-21 08:22:57 15.3 30 22.1
003A60A7 2019-04-21 07:48:16 15.4 30 22.2
003A60A7 2019-04-21 07:13:34 15.4 30 22.3
003A60A7 2019-04-21 06:38:53 15.4 30 22.3
003A60A7 2019-04-21 06:04:11 15.4 30 22.4
003A60A7 2019-04-21 05:29:29 15.4 30 22.5
003A60A7 2019-04-21 04:54:48 15.4 30 22.4
003A60A7 2019-04-21 04:20:07 15.3 30 22.4
003A60A7 2019-04-21 03:45:27 15.4 30 22.5
003A60A7 2019-04-21 03:10:46 15.4 30 22.6
003A60A7 2019-04-21 02:36:05 15.4 30 22.6
003A60A7 2019-04-21 02:01:24 15.3 30 22.6
003A60A7 2019-04-21 01:26:43 15.3 30 22.6
003A60A7 2019-04-21 00:52:03 15.3 30 22.7
003A60A7 2019-04-21 00:17:21 15.3 30 22.7
003A60A7 2019-04-20 23:42:40 15.4 30 22.7
003A60A7 2019-04-20 23:07:59 15.4 30 22.7
003A60A7 2019-04-20 22:33:17 15.4 30 22.8
003A60A7 2019-04-20 21:58:35 15.3 30 22.7
003A60A7 2019-04-20 21:23:53 15.3 30 22.8
003A60A7 2019-04-20 20:49:11 15.4 30 22.8
003A60A7 2019-04-20 20:14:30 15.4 30 22.9
003A60A7 2019-04-20 19:39:48 15.3 30 22.9
003A60A7 2019-04-20 19:05:06 15.4 30 23.1
003A60A7 2019-04-20 18:30:24 15.4 30 23.2
003A60A7 2019-04-20 17:55:43 15.4 30 23.1
003A60A7 2019-04-20 17:21:02 15.3 30 23.2
003A60A7 2019-04-20 16:46:20 15.4 30 23.2
003A60A7 2019-04-20 16:11:40 15.4 30 23.1
003A60A7 2019-04-20 15:36:58 15.4 30 23.1
003A60A7 2019-04-20 15:02:17 15.4 30 23.2
003A60A7 2019-04-20 14:27:35 15.4 30 23.3
003A60A7 2019-04-20 13:52:53 15.4 30 23.2
003A60A7 2019-04-20 13:18:11 15.4 30 23.2
003A60A7 2019-04-20 12:43:30 15.4 30 23.1
003A60A7 2019-04-20 12:08:49 15.4 30 23.1
003A60A7 2019-04-20 11:34:08 15.5 30 23.2
003A60A7 2019-04-20 10:59:27 15.5 30 23.3
003A60A7 2019-04-20 10:24:46 15.6 30 23.3
003A60A7 2019-04-20 09:50:05 15.5 30 23.4
003A60A7 2019-04-20 09:15:24 15.6 30 23.4
003A60A7 2019-04-20 08:40:45 15.6 30 23.3
003A60A7 2019-04-20 08:06:03 15.6 30 23.3
003A60A7 2019-04-20 07:31:23 15.6 29 23.3
003A60A7 2019-04-20 06:56:41 15.6 29 23.3
003A60A7 2019-04-20 06:22:01 15.6 29 23.2
003A60A7 2019-04-20 05:47:21 15.6 29 23.2
003A60A7 2019-04-20 05:12:41 15.6 29 23.1
003A60A7 2019-04-20 04:38:00 15.6 29 23
003A60A7 2019-04-20 04:03:21 15.6 29 23.1
003A60A7 2019-04-20 03:28:39 15.8 29 23.1
003A60A7 2019-04-20 02:53:58 15.8 29 22.9
003A60A7 2019-04-20 02:19:20 15.8 29 22.9
003A60A7 2019-04-20 01:44:37 15.8 29 22.8
003A60A7 2019-04-20 01:09:56 15.8 29 22.8
003A60A7 2019-04-20 00:35:17 15.8 29 22.7
003A60A7 2019-04-20 00:00:36 15.9 29 22.8
003A60A7 2019-04-19 23:25:56 15.8 29 22.7
003A60A7 2019-04-19 22:51:15 16 29 22.7
003A60A7 2019-04-19 22:16:37 15.9 29 22.7
003A60A7 2019-04-19 21:41:56 15.9 29 22.5
003A60A7 2019-04-19 21:07:15 16 29 22.4
003A60A7 2019-04-19 20:32:35 16 29 22.3
003A60A7 2019-04-19 19:57:54 16 29 22.2
003A60A7 2019-04-19 19:23:14 16 29 22.2
003A60A7 2019-04-19 18:48:35 16 29 22.4
003A60A7 2019-04-19 18:13:55 16 29 22.4
003A60A7 2019-04-19 17:39:15 16 29 22.4
003A60A7 2019-04-19 17:04:36 15.9 29 22.5
003A60A7 2019-04-19 16:29:57 15.9 29 22.5
003A60A7 2019-04-19 15:55:17 15.8 29 22.4
003A60A7 2019-04-19 15:20:37 15.8 29 22.5
003A60A7 2019-04-19 14:45:57 15.8 29 22.5
003A60A7 2019-04-19 14:11:17 15.8 29 22.5
003A60A7 2019-04-19 13:36:38 15.8 29 22.3
003A60A7 2019-04-19 13:01:58 15.8 29 22.3
003A60A7 2019-04-19 12:27:19 15.8 29 22.5
003A60A7 2019-04-19 11:52:39 15.8 29 22.5
003A60A7 2019-04-19 11:17:59 15.8 29 22.6
003A60A7 2019-04-19 10:43:19 15.8 29 22.6
003A60A7 2019-04-19 10:08:38 15.8 29 22.7
003A60A7 2019-04-19 09:33:57 15.8 29 22.6
003A60A7 2019-04-19 08:59:16 15.8 29 22.8
003A60A7 2019-04-19 08:24:36 15.8 29 22.9
003A60A7 2019-04-19 07:49:56 15.9 29 23
003A60A7 2019-04-19 07:15:16 15.8 29 23.1
003A60A7 2019-04-19 06:40:35 16 29 23.2
003A60A7 2019-04-19 06:05:55 16 29 23.2
003A60A7 2019-04-19 05:31:14 16 29 23.3
003A60A7 2019-04-19 04:56:33 16 29 23.3
003A60A7 2019-04-19 04:21:52 16 29 23.3
003A60A7 2019-04-19 03:47:11 16 28 23.5
003A60A7 2019-04-19 03:12:29 16 28 23.8
003A60A7 2019-04-19 02:37:48 16.1 28 23.9
003A60A7 2019-04-19 02:03:08 16.2 28 23.9
003A60A7 2019-04-19 01:28:27 16.2 28 23.9
003A60A7 2019-04-19 00:53:46 16.3 28 24
003A60A7 2019-04-19 00:19:07 16.2 28 24
003A60A7 2019-04-18 23:44:29 16.3 28 24.5
003A60A7 2019-04-18 23:09:48 16.4 28 24.5
003A60A7 2019-04-18 22:35:07 16.4 28 24.4
003A60A7 2019-04-18 22:00:26 16.4 28 24.6
003A60A7 2019-04-18 21:25:45 16.4 28 24.7
003A60A7 2019-04-18 20:51:04 16.4 28 24.7
003A60A7 2019-04-18 20:16:23 16.4 28 24.7
003A60A7 2019-04-18 19:41:41 16.5 28 24.7
003A60A7 2019-04-18 19:07:00 16.5 28 24.6
003A60A7 2019-04-18 18:32:20 16.5 28 24.6
003A60A7 2019-04-18 17:57:40 16.4 28 24.6
003A60A7 2019-04-18 17:23:00 16.4 28 24.5
003A60A7 2019-04-18 16:48:19 16.4 28 24.5
003A60A7 2019-04-18 16:13:39 16.3 28 24.4
003A60A7 2019-04-18 15:38:58 16.2 28 24.4
003A60A7 2019-04-18 15:04:19 16.2 28 24.3
003A60A7 2019-04-18 14:29:38 16.2 28 24.1
003A60A7 2019-04-18 13:54:59 16.3 28 23.8
003A60A7 2019-04-18 13:20:19 16.2 28 23.9
003A60A7 2019-04-18 12:45:39 16.2 28 23.9
003A60A7 2019-04-18 12:10:58 16.2 28 23.8
003A60A7 2019-04-18 11:36:18 16.3 28 23.7
003A60A7 2019-04-18 11:01:38 16.3 28 23.8
003A60A7 2019-04-18 10:26:58 16.3 28 23.5
003A60A7 2019-04-18 09:52:19 16.2 28 23.5
003A60A7 2019-04-18 09:17:39 16.2 28 23.3
003A60A7 2019-04-18 08:43:00 16.3 28 23.4
003A60A7 2019-04-18 08:08:20 16.4 28 23.2
003A60A7 2019-04-18 07:33:39 16.3 28 23.2
003A60A7 2019-04-18 06:59:00 16.4 28 23.3
003A60A7 2019-04-18 06:24:20 16.3 28 23.3
003A60A7 2019-04-18 05:49:41 16.3 28 23.4
003A60A7 2019-04-18 05:15:01 16.3 28 23.4
003A60A7 2019-04-18 04:40:22 16.4 28 23.6
003A60A7 2019-04-18 04:05:42 16.4 28 23.5
003A60A7 2019-04-18 03:31:03 16.4 28 23.7
003A60A7 2019-04-18 02:56:24 16.4 28 23.7
003A60A7 2019-04-18 02:21:44 16.4 27 23.6
003A60A7 2019-04-18 01:47:04 16.6 27 23.5
003A60A7 2019-04-18 01:12:24 16.7 27 23.5
003A60A7 2019-04-18 00:37:44 16.7 27 23.4
003A60A7 2019-04-18 00:03:04 16.8 27 23.3
003A60A7 2019-04-17 23:28:24 16.9 27 23.2
003A60A7 2019-04-17 22:53:44 16.9 27 22.9
003A60A7 2019-04-17 22:19:04 16.8 27 22.8
003A60A7 2019-04-17 21:44:23 16.8 27 22.7
003A60A7 2019-04-17 21:09:43 16.8 27 22.4
003A60A7 2019-04-17 20:35:02 16.8 27 22.3
003A60A7 2019-04-17 20:00:22 16.8 27 22.2
003A60A7 2019-04-17 19:25:42 16.9 27 22.3
003A60A7 2019-04-17 18:51:02 16.9 27 22.3
003A60A7 2019-04-17 18:16:21 16.9 27 22.2
003A60A7 2019-04-17 17:41:41 16.9 27 22
003A60A7 2019-04-17 17:07:02 16.9 27 21.6
003A60A7 2019-04-17 16:32:21 16.9 27 21.3
003A60A7 2019-04-17 15:57:42 16.9 27 21
003A60A7 2019-04-17 15:23:02 17.1 27 20.8
003A60A7 2019-04-17 14:48:23 17.1 27 20.5
003A60A7 2019-04-17 14:13:44 17.1 27 20.6
003A60A7 2019-04-17 13:39:05 17.3 26 19.9
003A60A7 2019-04-17 13:04:25 17.3 26 19.8
003A60A7 2019-04-17 12:29:45 17.3 26 19.8
003A60A7 2019-04-17 11:55:03 17.3 26 19.7
003A60A7 2019-04-17 11:20:23 17.3 26 19.8
003A60A7 2019-04-17 10:45:43 17.3 26 19.8
003A60A7 2019-04-17 10:11:03 17.4 26 19.5
003A60A7 2019-04-17 09:36:23 17.5 26 19.5
003A60A7 2019-04-17 09:01:43 17.5 26 19.4
003A60A7 2019-04-17 08:27:04 17.7 26 19.4
003A60A7 2019-04-17 07:52:25 17.7 26 19.5
003A60A7 2019-04-17 07:17:45 17.9 26 19.4
003A60A7 2019-04-17 06:43:05 17.9 26 19.5
003A60A7 2019-04-17 06:08:25 17.9 25 19.8
003A60A7 2019-04-17 05:33:44 18.1 25 20
003A60A7 2019-04-17 04:59:03 18.1 25 19.9
003A60A7 2019-04-17 04:24:22 18.2 25 19.8
003A60A7 2019-04-17 03:49:41 18.4 25 19.7
003A60A7 2019-04-17 03:15:00 18.4 25 19.5
003A60A7 2019-04-17 02:40:20 18.5 25 19.5
003A60A7 2019-04-17 02:05:39 18.6 25 19.4
003A60A7 2019-04-17 01:30:59 18.6 25 19.2
003A60A7 2019-04-17 00:56:19 18.6 25 19.1
003A60A7 2019-04-17 00:21:37 18.6 25 19.2
003A60A7 2019-04-16 23:46:56 18.7 25 18.9
003A60A7 2019-04-16 23:12:15 18.8 25 19.1
003A60A7 2019-04-16 22:37:34 19 25 19.2
003A60A7 2019-04-16 22:02:54 19 24 19.3
003A60A7 2019-04-16 21:28:12 19.2 24 19.6
003A60A7 2019-04-16 20:53:31 19.4 24 19.5
003A60A7 2019-04-16 20:18:49 19.5 24 19.8
003A60A7 2019-04-16 19:44:08 19.4 24 20
003A60A7 2019-04-16 19:09:27 19.5 24 20.2
003A60A7 2019-04-16 18:34:45 19.6 24 20.5
003A60A7 2019-04-16 18:00:04 19.7 24 20.7
003A60A7 2019-04-16 17:25:22 19.9 24 20.9
003A60A7 2019-04-16 16:50:41 19.9 24 20.8
003A60A7 2019-04-16 16:15:59 20.1 24 20.9
003A60A7 2019-04-16 15:41:18 20.3 23 20.8
003A60A7 2019-04-16 15:06:35 20.5 23 20.7
003A60A7 2019-04-16 14:31:54 20.7 23 20.7
003A60A7 2019-04-16 13:57:16 20.9 23 20.7
003A60A7 2019-04-16 13:22:31 20.8 23 21
003A60A7 2019-04-16 12:47:50 20.7 23 21.2
003A60A7 2019-04-16 12:13:08 20.7 23 21.4
003A60A7 2019-04-16 11:38:31 20.7 23 21.6
003A60A7 2019-04-16 11:03:46 20.7 23 21.9
003A60A7 2019-04-16 10:29:05 20.7 23 21.7
003A60A7 2019-04-16 09:54:23 20.7 23 21.8
003A60A7 2019-04-16 09:19:44 20.7 23 21.7
003A60A7 2019-04-16 08:45:00 20.7 23 21.6
003A60A7 2019-04-16 08:10:21 20.7 23 21.7
003A60A7 2019-04-16 07:35:38 20.7 23 21.7
003A60A7 2019-04-16 07:00:57 20.7 23 21.8
003A60A7 2019-04-16 06:26:17 20.7 23 21.7
003A60A7 2019-04-16 05:51:37 20.7 23 21.6
003A60A7 2019-04-16 05:16:55 20.7 23 21.5
003A60A7 2019-04-16 04:42:13 20.7 23 21.3
003A60A7 2019-04-16 04:07:31 20.7 22 21.3
003A60A7 2019-04-16 03:32:50 20.7 22 21.4
003A60A7 2019-04-16 02:58:08 20.7 22 21.4
003A60A7 2019-04-16 02:23:27 20.7 22 21.3
003A60A7 2019-04-16 01:48:46 20.7 22 21.3
003A60A7 2019-04-16 01:14:04 20.7 22 21.3
003A60A7 2019-04-16 00:39:24 20.7 22 21.5
003A60A7 2019-04-16 00:04:43 20.8 22 21.6
003A60A7 2019-04-15 23:30:03 20.9 22 21.8
003A60A7 2019-04-15 22:55:22 20.9 22 21.8
003A60A7 2019-04-15 22:20:41 21 21 21.8
003A60A7 2019-04-15 21:46:02 21 21 22.3
003A60A7 2019-04-15 21:11:18 21 21 22.4
003A60A7 2019-04-15 20:36:36 21 21 22.2
003A60A7 2019-04-15 20:01:54 20.9 21 22.2
003A60A7 2019-04-15 19:27:13 21.1 21 22.8
003A60A7 2019-04-15 18:52:36 21.1 20 23.2
003A60A7 2019-04-15 18:17:51 21.2 20 23.3
003A60A7 2019-04-15 17:43:09 21.2 20 23.9
003A60A7 2019-04-15 17:08:28 21.4 20 23.9
003A60A7 2019-04-15 16:33:47 21.4 19 24.1
003A60A7 2019-04-15 15:59:07 21.4 19 24.1
003A60A7 2019-04-15 15:24:25 21.6 19 24.3
003A60A7 2019-04-15 14:49:43 21.6 18 24.6
003A60A7 2019-04-15 14:15:03 21.8 18 24.5
003A60A7 2019-04-15 13:40:21 22 17 24.5
003A60A7 2019-04-15 13:05:40 22.1 17 24.7
003A60A7 2019-04-15 12:31:03 22.2 16 24.7
003A60A7 2019-04-15 11:56:17 22.1 15 24.8
003A60A7 2019-04-15 11:21:35 22 16 24.9
003A60A7 2019-04-15 10:46:54 22 16 25
003A60A7 2019-04-15 10:12:13 22 17 25
003A60A7 2019-04-15 09:37:32 21.8 17 25.1
003A60A7 2019-04-15 09:02:50 21.8 17 25
003A60A7 2019-04-15 08:28:08 21.8 17 25
003A60A7 2019-04-15 07:53:27 21.8 17 24.7
003A60A7 2019-04-15 07:18:45 21.6 17 24.6
003A60A7 2019-04-15 06:44:03 21.6 17 24.6
003A60A7 2019-04-15 06:09:21 21.6 17 25.1
003A60A7 2019-04-15 05:34:41 21.6 17 24.8
003A60A7 2019-04-15 04:59:59 21.6 17 24.8
003A60A7 2019-04-15 04:25:19 21.6 17 24.7
003A60A7 2019-04-15 03:50:38 21.6 17 24.6
003A60A7 2019-04-15 03:15:57 21.6 17 24
003A60A7 2019-04-15 02:41:15 21.6 17 24.6
003A60A7 2019-04-15 02:06:35 21.6 17 25
003A60A7 2019-04-15 01:31:54 21.6 17 25
003A60A7 2019-04-15 00:57:13 21.6 17 24.9
003A60A7 2019-04-15 00:22:31 21.6 17 24.9
003A60A7 2019-04-14 23:47:50 21.6 17 24.8
003A60A7 2019-04-14 23:13:08 21.6 17 24.8
003A60A7 2019-04-14 22:38:26 21.7 18 24.9
003A60A7 2019-04-14 22:03:46 21.8 18 24.9
003A60A7 2019-04-14 21:29:04 21.8 18 24.8
003A60A7 2019-04-14 20:54:23 21.8 18 24.9
003A60A7 2019-04-14 20:19:42 21.8 18 24.8
003A60A7 2019-04-14 19:45:00 21.8 18 24.9
003A60A7 2019-04-14 19:10:20 21.8 18 24.9
003A60A7 2019-04-14 18:35:40 21.8 18 24.9
003A60A7 2019-04-14 18:00:59 21.8 18 25.1
003A60A7 2019-04-14 17:26:18 21.7 18 25.1
003A60A7 2019-04-14 16:51:37 21.7 18 25.2
003A60A7 2019-04-14 16:16:55 21.7 18 25.2
003A60A7 2019-04-14 15:42:14 21.8 18 24.8
003A60A7 2019-04-14 15:07:31 21.8 18 24.9
003A60A7 2019-04-14 14:32:49 21.8 18 24.8
003A60A7 2019-04-14 13:58:08 21.8 18 25
003A60A7 2019-04-14 13:23:27 21.8 18 25.1
003A60A7 2019-04-14 12:48:44 21.8 18 25.1
003A60A7 2019-04-14 12:14:03 21.8 18 24.8
003A60A7 2019-04-14 11:39:21 21.8 18 24.2
003A60A7 2019-04-14 11:04:39 21.8 18 24.4
003A60A7 2019-04-14 10:29:56 21.8 18 24.4
003A60A7 2019-04-14 09:55:13 21.7 18 24.3
003A60A7 2019-04-14 09:20:30 21.6 18 24.3
003A60A7 2019-04-14 08:45:49 21.8 18 24.4
003A60A7 2019-04-14 08:11:06 21.7 18 24.3
003A60A7 2019-04-14 07:36:23 21.7 18 24.3
003A60A7 2019-04-14 07:01:42 21.7 18 24.4
003A60A7 2019-04-14 06:27:00 21.7 18 24.2
003A60A7 2019-04-14 05:52:18 21.7 18 24.1
003A60A7 2019-04-14 05:17:34 21.8 18 24
003A60A7 2019-04-14 04:42:52 21.8 18 24
003A60A7 2019-04-14 04:08:09 21.8 18 24
003A60A7 2019-04-14 03:33:26 21.8 18 23.8
003A60A7 2019-04-14 02:58:44 21.8 18 23.8
003A60A7 2019-04-14 02:24:01 21.8 18 23.7
003A60A7 2019-04-14 01:49:18 21.8 18 24
003A60A7 2019-04-14 01:14:35 21.8 18 23.9
003A60A7 2019-04-14 00:39:53 21.8 18 23.8
003A60A7 2019-04-14 00:05:11 21.8 18 23.8
003A60A7 2019-04-13 23:30:29 21.8 18 24.2
003A60A7 2019-04-13 22:55:46 21.8 18 24.1
003A60A7 2019-04-13 22:21:04 21.9 18 24.2
003A60A7 2019-04-13 21:46:21 21.9 18 23.9
003A60A7 2019-04-13 21:11:39 22 17 24
003A60A7 2019-04-13 20:36:56 22 17 23.8
003A60A7 2019-04-13 20:02:13 22 18 23.7
003A60A7 2019-04-13 19:27:29 22 18 23.6
003A60A7 2019-04-13 18:52:47 22 18 24.3
003A60A7 2019-04-13 18:18:05 22 18 24.2
003A60A7 2019-04-13 17:43:21 22 18 24.1
003A60A7 2019-04-13 17:08:39 22 18 24.1
003A60A7 2019-04-13 16:33:56 22.1 18 23.9
003A60A7 2019-04-13 15:59:13 22.1 18 23.9
003A60A7 2019-04-13 15:24:32 22.1 18 24
003A60A7 2019-04-13 14:49:49 22.2 18 23.9
003A60A7 2019-04-13 14:15:07 22.2 18 23.8
003A60A7 2019-04-13 13:40:26 22.2 18 23.7
003A60A7 2019-04-13 13:05:44 22.2 18 23.7
003A60A7 2019-04-13 12:31:01 22.2 18 23.6
003A60A7 2019-04-13 11:56:18 22.2 18 23.7
003A60A7 2019-04-13 11:21:36 22.2 18 23.5
003A60A7 2019-04-13 10:46:53 22.2 18 23.6
003A60A7 2019-04-13 10:12:10 22.1 18 23.8
003A60A7 2019-04-13 09:37:27 22.2 18 23.9
003A60A7 2019-04-13 09:02:43 22.1 18 23.3
003A60A7 2019-04-13 08:28:00 22.2 18 23.4
003A60A7 2019-04-13 07:53:18 22.2 18 23.4
003A60A7 2019-04-13 07:18:35 22.2 18 23.5
003A60A7 2019-04-13 06:43:52 22.2 18 23.5
003A60A7 2019-04-13 06:09:09 22.2 18 23.5
003A60A7 2019-04-13 05:34:27 22.1 18 23.5
003A60A7 2019-04-13 04:59:42 22.2 18 24.1
003A60A7 2019-04-13 04:24:59 22.2 18 24.1
003A60A7 2019-04-13 03:50:17 22.2 17 24.1
003A60A7 2019-04-13 03:15:34 22.2 18 24.1
003A60A7 2019-04-13 02:40:52 22.2 18 24.2
003A60A7 2019-04-13 02:06:09 22.2 18 24.3
003A60A7 2019-04-13 01:31:26 22.2 18 24.4
003A60A7 2019-04-13 00:56:43 22.3 18 24.4
003A60A7 2019-04-13 00:22:01 22.5 18 24.5
003A60A7 2019-04-12 23:47:17 22.5 19 24.7
003A60A7 2019-04-12 23:12:33 22.5 19 24.8
003A60A7 2019-04-12 22:37:49 22.5 19 24.9
003A60A7 2019-04-12 22:03:06 22.5 19 25.1
003A60A7 2019-04-12 21:28:22 22.6 19 25.3
003A60A7 2019-04-12 20:53:39 22.6 19 25.3
003A60A7 2019-04-12 20:18:54 22.6 19 25.4
003A60A7 2019-04-12 19:44:11 22.6 18 25.4
003A60A7 2019-04-12 19:09:27 22.6 18 25.5
003A60A7 2019-04-12 18:34:42 22.7 17 25.5
003A60A7 2019-04-12 17:59:58 22.8 17 25.7
003A60A7 2019-04-12 17:25:14 22.8 17 26
003A60A7 2019-04-12 16:50:30 22.8 18 26.3
003A60A7 2019-04-12 16:15:45 22.9 18 26.4
003A60A7 2019-04-12 15:41:02 22.6 19 26.9
003A60A7 2019-04-12 15:06:17 22.4 19 27.8
003A60A7 2019-04-12 14:31:33 22.2 19 26.7
003A60A7 2019-04-12 13:56:49 21.7 20 23
003A60A7 2019-04-12 13:22:05 21 23 18